Regional Weather Roundup
Issued by NWS Glasgow, MT

Home | Current Version | Previous Version | Text Only | Print | Product List | Glossary On
Versions: 1 2 3 4 5 6 7 8 9 10 11 12 13 14 15 16 17 18 19 20 21 22 23 24 25 26 27 28 29 30 31 32 33 34 35 36 37 38 39 40 41 42 43 44 45 46 47 48 49 50
647
ASUS45 KGGW 232115
RWRGGW
HOURLY REGIONAL WEATHER ROUNDUP FOR NORTHEAST MONTANA
NATIONAL WEATHER SERVICE GLASGOW MONTANA
300 PM MDT THU MAR 23 2017

NOTE: "FAIR" INDICATES FEW OR NO CLOUDS BELOW 12,000 FEET WITH NO
SIGNIFICANT WEATHER AND/OR OBSTRUCTIONS TO VISISBILITY.

NORTHEAST MONTANA


CITY           SKY/WX    TMP DP  RH WIND       PRES   REMARKS
GLASGOW        SUNNY     60  30  32 NW12      29.76F
PLENTYWOOD       N/A     56  35  45 NE2         N/A
WOLF POINT     SUNNY     64  35  34 VRB3      29.73F
JORDAN           N/A     62  31  31 NW12G20   29.77F
WINNETT          N/A     58  28  32 NW16G28     N/A
SIDNEY         PTSUNNY   59  41  51 E5        29.74F
GLENDIVE       CLOUDY    60  39  45 N9        29.74F
MALTA            N/A     61  29  29 NW12G20     N/A
SCOBEY           N/A     59  30  33 CALM      29.75F

FORT PECK REPORTS


CITY           SKY/WX    TMP DP  RH WIND       PRES   REMARKS
FORT PECK        N/A     61  32  33 W12         N/A
THE PINES        N/A     63  29  27 NE2         N/A

SOUTHEAST MONTANA


CITY           SKY/WX    TMP DP  RH WIND       PRES   REMARKS
BILLINGS       CLOUDY    54  35  48 VRB3      29.81F
MILES CITY     PTSUNNY   56  44  64 W12       29.77S
BAKER          CLOUDY    52  36  54 E8        29.77F
LIVINGSTON     PTSUNNY   55  28  35 N10G20    29.83S

CENTRAL MONTANA


CITY           SKY/WX    TMP DP  RH WIND       PRES   REMARKS
HAVRE          PTSUNNY   58  24  27 NW13G23   29.80
LEWISTOWN      PTSUNNY   55  25  31 NW8       29.82
GREAT FALLS    SUNNY     55  15  20 W10G26    29.84F
CUT BANK       FAIR      51  22  31 W20G30    29.83S
HELENA         SUNNY     53  21  28 W14G23    29.89S
BUTTE          MOSUNNY   47  21  35 NW10      29.90S
BOZEMAN        CLOUDY    49  27  42 W5        29.88F

WESTERN MONTANA


CITY           SKY/WX    TMP DP  RH WIND       PRES   REMARKS
MISSOULA       FAIR      49  24  37 N16G23    29.97F
KALISPELL      NOT AVBL

NORTH DAKOTA


CITY           SKY/WX    TMP DP  RH WIND       PRES   REMARKS
WILLISTON      PTSUNNY   56  38  50 NE7       29.75S
DICKINSON      CLOUDY    48  38  68 NE5       29.73F
MINOT          CLOUDY    42  34  73 N10       29.75S
BISMARCK       CLOUDY    41  37  86 N7        29.73F

SOUTHERN SASKATCHEWAN


CITY           SKY/WX    TMP DP  RH WIND       PRES   REMARKS
REGINA         MOSUNNY   48  32  53 NW8       29.77F
MOOSE JAW      MOSUNNY   45  34  65 N3        29.80F
ESTEVAN        PTSUNNY   37  34  87 W8        29.78S
SWIFT CURRENT  SUNNY     52  34  50 N13G18    29.74S





USA.gov is the U.S. government's official web portal to all federal, state and local government web resources and services.